Year,Month,Day,Hour,Minute,Value (Times are PST for temperature in C)
2017,09,06,00,00,18.10
2017,09,06,00,01,18.00
2017,09,06,00,02,18.00
2017,09,06,00,03,17.90
2017,09,06,00,04,17.90
2017,09,06,00,05,17.90
2017,09,06,00,06,17.80
2017,09,06,00,07,17.80
2017,09,06,00,08,17.80
2017,09,06,00,09,17.80
2017,09,06,00,10,17.80
2017,09,06,00,11,17.70
2017,09,06,00,12,17.70
2017,09,06,00,13,17.70
2017,09,06,00,14,17.60
2017,09,06,00,15,17.50
2017,09,06,00,16,17.50
2017,09,06,00,17,17.40
2017,09,06,00,18,17.30
2017,09,06,00,19,17.30
2017,09,06,00,20,17.30
2017,09,06,00,21,17.20
2017,09,06,00,22,17.20
2017,09,06,00,23,17.10
2017,09,06,00,24,17.10
2017,09,06,00,25,17.00
2017,09,06,00,26,17.00
2017,09,06,00,27,16.90
2017,09,06,00,28,16.90
2017,09,06,00,29,16.90
2017,09,06,00,30,16.80
2017,09,06,00,31,16.80
2017,09,06,00,32,16.80
2017,09,06,00,33,16.70
2017,09,06,00,34,16.70
2017,09,06,00,35,16.70
2017,09,06,00,36,16.70
2017,09,06,00,37,16.70
2017,09,06,00,38,16.70
2017,09,06,00,39,16.60
2017,09,06,00,40,16.60
2017,09,06,00,41,16.60
2017,09,06,00,42,16.60
2017,09,06,00,43,16.60
2017,09,06,00,44,16.60
2017,09,06,00,45,16.60
2017,09,06,00,46,16.60
2017,09,06,00,47,16.60
2017,09,06,00,48,16.60
2017,09,06,00,49,16.50
2017,09,06,00,50,16.50
2017,09,06,00,51,16.50
2017,09,06,00,52,16.50
2017,09,06,00,53,16.50
2017,09,06,00,54,16.50
2017,09,06,00,55,16.50
2017,09,06,00,56,16.50
2017,09,06,00,57,16.40
2017,09,06,00,58,16.40
2017,09,06,00,59,16.40
2017,09,06,01,00,16.40
2017,09,06,01,01,16.40
2017,09,06,01,02,16.40
2017,09,06,01,03,16.40
2017,09,06,01,04,16.40
2017,09,06,01,05,16.40
2017,09,06,01,06,16.40
2017,09,06,01,07,16.40
2017,09,06,01,08,16.40
2017,09,06,01,09,16.40
2017,09,06,01,10,16.40
2017,09,06,01,11,16.40
2017,09,06,01,12,16.40
2017,09,06,01,13,16.40
2017,09,06,01,14,16.40
2017,09,06,01,15,16.40
2017,09,06,01,16,16.40
2017,09,06,01,17,16.30
2017,09,06,01,18,16.30
2017,09,06,01,19,16.30
2017,09,06,01,20,16.30
2017,09,06,01,21,16.30
2017,09,06,01,22,16.30
2017,09,06,01,23,16.30
2017,09,06,01,24,16.30
2017,09,06,01,25,16.30
2017,09,06,01,26,16.30
2017,09,06,01,27,16.30
2017,09,06,01,28,16.30
2017,09,06,01,29,16.30
2017,09,06,01,30,16.30
2017,09,06,01,31,16.30
2017,09,06,01,32,16.30
2017,09,06,01,33,16.30
2017,09,06,01,34,16.30
2017,09,06,01,35,16.30
2017,09,06,01,36,16.30
2017,09,06,01,37,16.30
2017,09,06,01,38,16.30
2017,09,06,01,39,16.30
2017,09,06,01,40,16.30
2017,09,06,01,41,16.30
2017,09,06,01,42,16.30
2017,09,06,01,43,16.40
2017,09,06,01,44,16.40
2017,09,06,01,45,16.40
2017,09,06,01,46,16.40
2017,09,06,01,47,16.40
2017,09,06,01,48,16.40
2017,09,06,01,49,16.40
2017,09,06,01,50,16.40
2017,09,06,01,51,16.40
2017,09,06,01,52,16.40
2017,09,06,01,53,16.40
2017,09,06,01,54,16.40
2017,09,06,01,55,16.40
2017,09,06,01,56,16.40
2017,09,06,01,57,16.40
2017,09,06,01,58,16.40
2017,09,06,01,59,16.40
2017,09,06,02,00,16.40
2017,09,06,02,01,16.40
2017,09,06,02,02,16.40
2017,09,06,02,03,16.40
2017,09,06,02,04,16.40
2017,09,06,02,05,16.40
2017,09,06,02,06,16.40
2017,09,06,02,07,16.40
2017,09,06,02,08,16.40
2017,09,06,02,09,16.40
2017,09,06,02,10,16.40
2017,09,06,02,11,16.40
2017,09,06,02,12,16.40
2017,09,06,02,13,16.40
2017,09,06,02,14,16.40
2017,09,06,02,15,16.40
2017,09,06,02,16,16.40
2017,09,06,02,17,16.40
2017,09,06,02,18,16.40
2017,09,06,02,19,16.40
2017,09,06,02,20,16.40
2017,09,06,02,21,16.40
2017,09,06,02,22,16.40
2017,09,06,02,23,16.40
2017,09,06,02,24,16.40
2017,09,06,02,25,16.40
2017,09,06,02,26,16.40
2017,09,06,02,27,16.40
2017,09,06,02,28,16.40
2017,09,06,02,29,16.40
2017,09,06,02,30,16.40
2017,09,06,02,31,16.40
2017,09,06,02,32,16.40
2017,09,06,02,33,16.40
2017,09,06,02,34,16.40
2017,09,06,02,35,16.40
2017,09,06,02,36,16.40
2017,09,06,02,37,16.40
2017,09,06,02,38,16.30
2017,09,06,02,39,16.30
2017,09,06,02,40,16.30
2017,09,06,02,41,16.30
2017,09,06,02,42,16.30
2017,09,06,02,43,16.30
2017,09,06,02,44,16.30
2017,09,06,02,45,16.30
2017,09,06,02,46,16.30
2017,09,06,02,47,16.40
2017,09,06,02,48,16.40
2017,09,06,02,49,16.40
2017,09,06,02,50,16.50
2017,09,06,02,51,16.60
2017,09,06,02,52,16.60
2017,09,06,02,53,16.70
2017,09,06,02,54,16.70
2017,09,06,02,55,16.70
2017,09,06,02,56,16.80
2017,09,06,02,57,16.80
2017,09,06,02,58,16.80
2017,09,06,02,59,16.80
2017,09,06,03,00,16.80
2017,09,06,03,01,16.90
2017,09,06,03,02,16.90
2017,09,06,03,03,16.90
2017,09,06,03,04,16.90
2017,09,06,03,05,16.90
2017,09,06,03,06,16.90
2017,09,06,03,07,17.00
2017,09,06,03,08,17.00
2017,09,06,03,09,17.00
2017,09,06,03,10,17.00
2017,09,06,03,11,17.00
2017,09,06,03,12,17.00
2017,09,06,03,13,17.10
2017,09,06,03,14,17.10
2017,09,06,03,15,17.10
2017,09,06,03,16,17.10
2017,09,06,03,17,17.10
2017,09,06,03,18,17.20
2017,09,06,03,19,17.20
2017,09,06,03,20,17.20
2017,09,06,03,21,17.20
2017,09,06,03,22,17.20
2017,09,06,03,23,17.20
2017,09,06,03,24,17.20
2017,09,06,03,25,17.20
2017,09,06,03,26,17.20
2017,09,06,03,27,17.20
2017,09,06,03,28,17.20
2017,09,06,03,29,17.20
2017,09,06,03,30,17.20
2017,09,06,03,31,17.20
2017,09,06,03,32,17.20
2017,09,06,03,33,17.20
2017,09,06,03,34,17.20
2017,09,06,03,35,17.20
2017,09,06,03,36,17.20
2017,09,06,03,37,17.20
2017,09,06,03,38,17.20
2017,09,06,03,39,17.20
2017,09,06,03,40,17.20
2017,09,06,03,41,17.20
2017,09,06,03,42,17.10
2017,09,06,03,43,17.10
2017,09,06,03,44,17.10
2017,09,06,03,45,17.10
2017,09,06,03,46,17.10
2017,09,06,03,47,17.10
2017,09,06,03,48,17.10
2017,09,06,03,49,17.10
2017,09,06,03,50,17.10
2017,09,06,03,51,17.00
2017,09,06,03,52,17.00
2017,09,06,03,53,17.00
2017,09,06,03,54,17.00
2017,09,06,03,55,16.90
2017,09,06,03,56,16.90
2017,09,06,03,57,16.90
2017,09,06,03,58,16.80
2017,09,06,03,59,16.80
2017,09,06,04,00,16.70
2017,09,06,04,01,16.70
2017,09,06,04,02,16.70
2017,09,06,04,03,16.60
2017,09,06,04,04,16.50
2017,09,06,04,05,16.50
2017,09,06,04,06,16.50
2017,09,06,04,07,16.40
2017,09,06,04,08,16.40
2017,09,06,04,09,16.30
2017,09,06,04,10,16.30
2017,09,06,04,11,16.30
2017,09,06,04,12,16.30
2017,09,06,04,13,16.30
2017,09,06,04,14,16.30
2017,09,06,04,15,16.30
2017,09,06,04,16,16.30
2017,09,06,04,17,16.30
2017,09,06,04,18,16.30
2017,09,06,04,19,16.30
2017,09,06,04,20,16.30
2017,09,06,04,21,16.30
2017,09,06,04,22,16.30
2017,09,06,04,23,16.30
2017,09,06,04,24,16.30
2017,09,06,04,25,16.30
2017,09,06,04,26,16.30
2017,09,06,04,27,16.30
2017,09,06,04,28,16.30
2017,09,06,04,29,16.30
2017,09,06,04,30,16.30
2017,09,06,04,31,16.30
2017,09,06,04,32,16.30
2017,09,06,04,33,16.30
2017,09,06,04,34,16.30
2017,09,06,04,35,16.30
2017,09,06,04,36,16.30
2017,09,06,04,37,16.30
2017,09,06,04,38,16.20
2017,09,06,04,39,16.20
2017,09,06,04,40,16.20
2017,09,06,04,41,16.20
2017,09,06,04,42,16.20
2017,09,06,04,43,16.20
2017,09,06,04,44,16.20
2017,09,06,04,45,16.20
2017,09,06,04,46,16.20
2017,09,06,04,47,16.20
2017,09,06,04,48,16.20
2017,09,06,04,49,16.20
2017,09,06,04,50,16.20
2017,09,06,04,51,16.20
2017,09,06,04,52,16.20
2017,09,06,04,53,16.20
2017,09,06,04,54,16.20
2017,09,06,04,55,16.20
2017,09,06,04,56,16.20
2017,09,06,04,57,16.20
2017,09,06,04,58,16.20
2017,09,06,04,59,16.20
2017,09,06,05,00,16.20
2017,09,06,05,01,16.20
2017,09,06,05,02,16.20
2017,09,06,05,03,16.20
2017,09,06,05,04,16.20
2017,09,06,05,05,16.10
2017,09,06,05,06,16.20
2017,09,06,05,07,16.20
2017,09,06,05,08,16.20
2017,09,06,05,09,16.20
2017,09,06,05,10,16.20
2017,09,06,05,11,16.20
2017,09,06,05,12,16.20
2017,09,06,05,13,16.20
2017,09,06,05,14,16.20
2017,09,06,05,15,16.20
2017,09,06,05,16,16.20
2017,09,06,05,17,16.20
2017,09,06,05,18,16.20
2017,09,06,05,19,16.20
2017,09,06,05,20,16.20
2017,09,06,05,21,16.20
2017,09,06,05,22,16.20
2017,09,06,05,23,16.20
2017,09,06,05,24,16.20
2017,09,06,05,25,16.20
2017,09,06,05,26,16.20
2017,09,06,05,27,16.20
2017,09,06,05,28,16.20
2017,09,06,05,29,16.20
2017,09,06,05,30,16.20
2017,09,06,05,31,16.20
2017,09,06,05,32,16.20
2017,09,06,05,33,16.20
2017,09,06,05,34,16.20
2017,09,06,05,35,16.20
2017,09,06,05,36,16.20
2017,09,06,05,37,16.20
2017,09,06,05,38,16.10
2017,09,06,05,39,16.10
2017,09,06,05,40,16.10
2017,09,06,05,41,16.10
2017,09,06,05,42,16.10
2017,09,06,05,43,16.10
2017,09,06,05,44,16.10
2017,09,06,05,45,16.00
2017,09,06,05,46,16.00
2017,09,06,05,47,16.00
2017,09,06,05,48,15.90
2017,09,06,05,49,15.90
2017,09,06,05,50,15.90
2017,09,06,05,51,15.90
2017,09,06,05,52,15.90
2017,09,06,05,53,15.80
2017,09,06,05,54,15.80
2017,09,06,05,55,15.80
2017,09,06,05,56,15.80
2017,09,06,05,57,15.80
2017,09,06,05,58,15.80
2017,09,06,05,59,15.80
2017,09,06,06,00,15.90
2017,09,06,06,01,15.90
2017,09,06,06,02,15.90
2017,09,06,06,03,15.90
2017,09,06,06,04,15.90
2017,09,06,06,05,15.90
2017,09,06,06,06,15.90
2017,09,06,06,07,15.90
2017,09,06,06,08,15.90
2017,09,06,06,09,15.90
2017,09,06,06,10,15.90
2017,09,06,06,11,15.90
2017,09,06,06,12,15.90
2017,09,06,06,13,15.90
2017,09,06,06,14,15.90
2017,09,06,06,15,15.90
2017,09,06,06,16,15.90
2017,09,06,06,17,15.90
2017,09,06,06,18,15.90
2017,09,06,06,19,15.90
2017,09,06,06,20,15.90
2017,09,06,06,21,15.90
2017,09,06,06,22,15.90
2017,09,06,06,23,15.80
2017,09,06,06,24,15.80
2017,09,06,06,25,15.70
2017,09,06,06,26,15.70
2017,09,06,06,27,15.60
2017,09,06,06,28,15.50
2017,09,06,06,29,15.50
2017,09,06,06,30,15.40
2017,09,06,06,31,15.30
2017,09,06,06,32,15.30
2017,09,06,06,33,15.30
2017,09,06,06,34,15.30
2017,09,06,06,35,15.30
2017,09,06,06,36,15.30
2017,09,06,06,37,15.30
2017,09,06,06,38,15.30
2017,09,06,06,39,15.30
2017,09,06,06,40,15.30
2017,09,06,06,41,15.30
2017,09,06,06,42,15.30
2017,09,06,06,43,15.40
2017,09,06,06,44,15.40
2017,09,06,06,45,15.40
2017,09,06,06,46,15.50
2017,09,06,06,47,15.50
2017,09,06,06,48,15.60
2017,09,06,06,49,15.60
2017,09,06,06,50,15.60
2017,09,06,06,51,15.60
2017,09,06,06,52,15.70
2017,09,06,06,53,15.70
2017,09,06,06,54,15.70
2017,09,06,06,55,15.70
2017,09,06,06,56,15.70
2017,09,06,06,57,15.80
2017,09,06,06,58,15.80
2017,09,06,06,59,15.80
2017,09,06,07,00,15.90
2017,09,06,07,01,15.90
2017,09,06,07,02,15.90
2017,09,06,07,03,15.90
2017,09,06,07,04,16.00
2017,09,06,07,05,16.00
2017,09,06,07,06,16.00
2017,09,06,07,07,16.10
2017,09,06,07,08,16.10
2017,09,06,07,09,16.10
2017,09,06,07,10,16.20
2017,09,06,07,11,16.20
2017,09,06,07,12,16.20
2017,09,06,07,13,16.30
2017,09,06,07,14,16.30
2017,09,06,07,15,16.30
2017,09,06,07,16,16.40
2017,09,06,07,17,16.40
2017,09,06,07,18,16.40
2017,09,06,07,19,16.40
2017,09,06,07,20,16.50
2017,09,06,07,21,16.50
2017,09,06,07,22,16.60
2017,09,06,07,23,16.60
2017,09,06,07,24,16.60
2017,09,06,07,25,16.70
2017,09,06,07,26,16.70
2017,09,06,07,27,16.70
2017,09,06,07,28,16.70
2017,09,06,07,29,16.80
2017,09,06,07,30,16.80
2017,09,06,07,31,16.80
2017,09,06,07,32,16.80
2017,09,06,07,33,16.80
2017,09,06,07,34,16.80
2017,09,06,07,35,16.80
2017,09,06,07,36,16.80
2017,09,06,07,37,16.80
2017,09,06,07,38,16.80
2017,09,06,07,39,16.80
2017,09,06,07,40,16.80
2017,09,06,07,41,16.80
2017,09,06,07,42,16.80
2017,09,06,07,43,16.80
2017,09,06,07,44,16.80
2017,09,06,07,45,16.80
2017,09,06,07,46,16.90
2017,09,06,07,47,16.90
2017,09,06,07,48,16.90
2017,09,06,07,49,16.80
2017,09,06,07,50,16.80
2017,09,06,07,51,16.80
2017,09,06,07,52,16.80
2017,09,06,07,53,16.80
2017,09,06,07,54,16.80
2017,09,06,07,55,16.80
2017,09,06,07,56,16.80
2017,09,06,07,57,16.70
2017,09,06,07,58,16.70
2017,09,06,07,59,16.70
2017,09,06,08,00,16.70
2017,09,06,08,01,16.70
2017,09,06,08,02,16.70
2017,09,06,08,03,16.70
2017,09,06,08,04,16.70
2017,09,06,08,05,16.70
2017,09,06,08,06,16.70
2017,09,06,08,07,16.70
2017,09,06,08,08,16.60
2017,09,06,08,09,16.60
2017,09,06,08,10,16.60
2017,09,06,08,11,16.60
2017,09,06,08,12,16.60
2017,09,06,08,13,16.60
2017,09,06,08,14,16.60
2017,09,06,08,15,16.60
2017,09,06,08,16,16.60
2017,09,06,08,17,16.60
2017,09,06,08,18,16.60
2017,09,06,08,19,16.60
2017,09,06,08,20,16.60
2017,09,06,08,21,16.60
2017,09,06,08,22,16.60
2017,09,06,08,23,16.60
2017,09,06,08,24,16.60
2017,09,06,08,25,16.60
2017,09,06,08,26,16.70
2017,09,06,08,27,16.60
2017,09,06,08,28,16.60
2017,09,06,08,29,16.60
2017,09,06,08,30,16.60
2017,09,06,08,31,16.60
2017,09,06,08,32,16.60
2017,09,06,08,33,16.60
2017,09,06,08,34,16.60
2017,09,06,08,35,16.60
2017,09,06,08,36,16.50
2017,09,06,08,37,16.50
2017,09,06,08,38,16.50
2017,09,06,08,39,16.50
2017,09,06,08,40,16.50
2017,09,06,08,41,16.50
2017,09,06,08,42,16.50
2017,09,06,08,43,16.60
2017,09,06,08,44,16.60
2017,09,06,08,45,16.60
2017,09,06,08,46,16.60
2017,09,06,08,47,16.60
2017,09,06,08,48,16.60
2017,09,06,08,49,16.70
2017,09,06,08,50,16.70
2017,09,06,08,51,16.70
2017,09,06,08,52,16.70
2017,09,06,08,53,16.80
2017,09,06,08,54,16.80
2017,09,06,08,55,16.80
2017,09,06,08,56,16.80
2017,09,06,08,57,16.80
2017,09,06,08,58,16.80
2017,09,06,08,59,16.80
2017,09,06,09,00,16.80
2017,09,06,09,01,16.90
2017,09,06,09,02,16.90
2017,09,06,09,03,16.90
2017,09,06,09,04,17.00
2017,09,06,09,05,17.00
2017,09,06,09,06,17.10
2017,09,06,09,07,17.10
2017,09,06,09,08,17.10
2017,09,06,09,09,17.10
2017,09,06,09,10,17.20
2017,09,06,09,11,17.20
2017,09,06,09,12,17.20
2017,09,06,09,13,17.30
2017,09,06,09,14,17.30
2017,09,06,09,15,17.40
2017,09,06,09,16,17.40
2017,09,06,09,17,17.50
2017,09,06,09,18,17.60
2017,09,06,09,19,17.60
2017,09,06,09,20,17.70
2017,09,06,09,21,17.70
2017,09,06,09,22,17.70
2017,09,06,09,23,17.80
2017,09,06,09,24,17.80
2017,09,06,09,25,17.80
2017,09,06,09,26,17.80
2017,09,06,09,27,17.80
2017,09,06,09,28,17.80
2017,09,06,09,29,17.80
2017,09,06,09,30,17.80
2017,09,06,09,31,17.80
2017,09,06,09,32,17.90
2017,09,06,09,33,17.90
2017,09,06,09,34,17.90
2017,09,06,09,35,17.90
2017,09,06,09,36,17.80
2017,09,06,09,37,17.80
2017,09,06,09,38,17.70
2017,09,06,09,39,17.60
2017,09,06,09,40,17.60
2017,09,06,09,41,17.60
2017,09,06,09,42,17.60
2017,09,06,09,43,17.60
2017,09,06,09,44,17.60
2017,09,06,09,45,17.60
2017,09,06,09,46,17.60
2017,09,06,09,47,17.70
2017,09,06,09,48,17.70
2017,09,06,09,49,17.80
2017,09,06,09,50,17.80
2017,09,06,09,51,17.90
2017,09,06,09,52,17.90
2017,09,06,09,53,18.00
2017,09,06,09,54,18.10
2017,09,06,09,55,18.20
2017,09,06,09,56,18.30
2017,09,06,09,57,18.50
2017,09,06,09,58,18.60
2017,09,06,09,59,18.70
2017,09,06,10,00,18.80
2017,09,06,10,01,19.00
2017,09,06,10,02,19.10
2017,09,06,10,03,19.30
2017,09,06,10,04,19.40
2017,09,06,10,05,19.60
2017,09,06,10,06,19.70
2017,09,06,10,07,19.80
2017,09,06,10,08,19.80
2017,09,06,10,09,19.90
2017,09,06,10,10,19.90
2017,09,06,10,11,19.90
2017,09,06,10,12,19.90
2017,09,06,10,13,19.80
2017,09,06,10,14,19.80
2017,09,06,10,15,19.70
2017,09,06,10,16,19.70
2017,09,06,10,17,19.60
2017,09,06,10,18,19.60
2017,09,06,10,19,19.50
2017,09,06,10,20,19.50
2017,09,06,10,21,19.40
2017,09,06,10,22,19.40
2017,09,06,10,23,19.40
2017,09,06,10,24,19.40
2017,09,06,10,25,19.40
2017,09,06,10,26,19.40
2017,09,06,10,27,19.40
2017,09,06,10,28,19.40
2017,09,06,10,29,19.30
2017,09,06,10,30,19.30
2017,09,06,10,31,19.30
2017,09,06,10,32,19.30
2017,09,06,10,33,19.30
2017,09,06,10,34,19.30
2017,09,06,10,35,19.30
2017,09,06,10,36,19.30
2017,09,06,10,37,19.30
2017,09,06,10,38,19.30
2017,09,06,10,39,19.30
2017,09,06,10,40,19.30
2017,09,06,10,41,19.30
2017,09,06,10,42,19.40
2017,09,06,10,43,19.40
2017,09,06,10,44,19.40
2017,09,06,10,45,19.50
2017,09,06,10,46,19.60
2017,09,06,10,47,19.70
2017,09,06,10,48,19.70
2017,09,06,10,49,19.80
2017,09,06,10,50,19.80
2017,09,06,10,51,19.90
2017,09,06,10,52,19.90
2017,09,06,10,53,19.90
2017,09,06,10,54,19.90
2017,09,06,10,55,20.00
2017,09,06,10,56,20.10
2017,09,06,10,57,20.10
2017,09,06,10,58,20.20
2017,09,06,10,59,20.30
2017,09,06,11,00,20.40
2017,09,06,11,01,20.50
2017,09,06,11,02,20.60
2017,09,06,11,03,20.60
2017,09,06,11,04,20.70
2017,09,06,11,05,20.80
2017,09,06,11,06,20.80
2017,09,06,11,07,20.80
2017,09,06,11,08,20.80
2017,09,06,11,09,20.80
2017,09,06,11,10,20.80
2017,09,06,11,11,20.80
2017,09,06,11,12,20.80
2017,09,06,11,13,20.80
2017,09,06,11,14,20.70
2017,09,06,11,15,20.70
2017,09,06,11,16,20.70
2017,09,06,11,17,20.70
2017,09,06,11,18,20.80
2017,09,06,11,19,20.80
2017,09,06,11,20,20.80
2017,09,06,11,21,20.90
2017,09,06,11,22,20.90
2017,09,06,11,23,20.90
2017,09,06,11,24,21.00
2017,09,06,11,25,21.00
2017,09,06,11,26,21.00
2017,09,06,11,27,21.10
2017,09,06,11,28,21.00
2017,09,06,11,29,21.00
2017,09,06,11,30,20.90
2017,09,06,11,31,20.90
2017,09,06,11,32,20.90
2017,09,06,11,33,20.90
2017,09,06,11,34,20.80
2017,09,06,11,35,20.80
2017,09,06,11,36,20.80
2017,09,06,11,37,20.80
2017,09,06,11,38,20.70
2017,09,06,11,39,20.60
2017,09,06,11,40,20.50
2017,09,06,11,41,20.40
2017,09,06,11,42,20.30
2017,09,06,11,43,20.30
2017,09,06,11,44,20.30
2017,09,06,11,45,20.30
2017,09,06,11,46,20.30
2017,09,06,11,47,20.20
2017,09,06,11,48,20.20
2017,09,06,11,49,20.10
2017,09,06,11,50,20.00
2017,09,06,11,51,20.00
2017,09,06,11,52,19.90
2017,09,06,11,53,19.80
2017,09,06,11,54,19.80
2017,09,06,11,55,19.80
2017,09,06,11,56,19.80
2017,09,06,11,57,19.80
2017,09,06,11,58,19.80
2017,09,06,11,59,19.80
2017,09,06,12,00,19.90
2017,09,06,12,01,19.90
2017,09,06,12,02,19.90
2017,09,06,12,03,19.80
2017,09,06,12,04,19.80
2017,09,06,12,05,19.80
2017,09,06,12,06,19.80
2017,09,06,12,07,19.90
2017,09,06,12,08,19.90
2017,09,06,12,09,19.90
2017,09,06,12,10,20.00
2017,09,06,12,11,20.00
2017,09,06,12,12,20.10
2017,09,06,12,13,20.10
2017,09,06,12,14,20.00
2017,09,06,12,15,20.00
2017,09,06,12,16,20.00
2017,09,06,12,17,19.90
2017,09,06,12,18,19.90
2017,09,06,12,19,19.90
2017,09,06,12,20,20.00
2017,09,06,12,21,20.00
2017,09,06,12,22,19.90
2017,09,06,12,23,19.90
2017,09,06,12,24,19.80
2017,09,06,12,25,19.80
2017,09,06,12,26,19.80
2017,09,06,12,27,19.80
2017,09,06,12,28,19.70
2017,09,06,12,29,19.70
2017,09,06,12,30,19.60
2017,09,06,12,31,19.60
2017,09,06,12,32,19.50
2017,09,06,12,33,19.40
2017,09,06,12,34,19.40
2017,09,06,12,35,19.40
2017,09,06,12,36,19.40
2017,09,06,12,37,19.40
2017,09,06,12,38,19.40
2017,09,06,12,39,19.40
2017,09,06,12,40,19.40
2017,09,06,12,41,19.50
2017,09,06,12,42,19.50
2017,09,06,12,43,19.50
2017,09,06,12,44,19.60
2017,09,06,12,45,19.70
2017,09,06,12,46,19.70
2017,09,06,12,47,19.80
2017,09,06,12,48,19.80
2017,09,06,12,49,19.90
2017,09,06,12,50,19.90
2017,09,06,12,51,19.80
2017,09,06,12,52,19.80
2017,09,06,12,53,19.80
2017,09,06,12,54,19.80
2017,09,06,12,55,19.80
2017,09,06,12,56,19.90
2017,09,06,12,57,19.90
2017,09,06,12,58,20.00
2017,09,06,12,59,20.10
2017,09,06,13,00,20.10
2017,09,06,13,01,20.20
2017,09,06,13,02,20.30
2017,09,06,13,03,20.30
2017,09,06,13,04,20.40
2017,09,06,13,05,20.50
2017,09,06,13,06,20.50
2017,09,06,13,07,20.50
2017,09,06,13,08,20.60
2017,09,06,13,09,20.60
2017,09,06,13,10,20.60
2017,09,06,13,11,20.60
2017,09,06,13,12,20.60
2017,09,06,13,13,20.60
2017,09,06,13,14,20.60
2017,09,06,13,15,20.60
2017,09,06,13,16,20.60
2017,09,06,13,17,20.60
2017,09,06,13,18,20.60
2017,09,06,13,19,20.60
2017,09,06,13,20,20.70
2017,09,06,13,21,20.70
2017,09,06,13,22,20.70
2017,09,06,13,23,20.80
2017,09,06,13,24,20.80
2017,09,06,13,25,20.90
2017,09,06,13,26,20.80
2017,09,06,13,27,20.80
2017,09,06,13,28,20.80
2017,09,06,13,29,20.80
2017,09,06,13,30,20.80
2017,09,06,13,31,20.70
2017,09,06,13,32,20.70
2017,09,06,13,33,20.60
2017,09,06,13,34,20.50
2017,09,06,13,35,20.50
2017,09,06,13,36,20.40
2017,09,06,13,37,20.30
2017,09,06,13,38,20.30
2017,09,06,13,39,20.20
2017,09,06,13,40,20.10
2017,09,06,13,41,20.00
2017,09,06,13,42,19.80
2017,09,06,13,43,19.60
2017,09,06,13,44,19.40
2017,09,06,13,45,19.10
2017,09,06,13,46,18.90
2017,09,06,13,47,18.70
2017,09,06,13,48,18.50
2017,09,06,13,49,18.40
2017,09,06,13,50,18.30
2017,09,06,13,51,18.30
2017,09,06,13,52,18.20
2017,09,06,13,53,18.20
2017,09,06,13,54,18.20
2017,09,06,13,55,18.20
2017,09,06,13,56,18.20
2017,09,06,13,57,18.20
2017,09,06,13,58,18.20
2017,09,06,13,59,18.30
2017,09,06,14,00,18.30
2017,09,06,14,01,18.30
2017,09,06,14,02,18.40
2017,09,06,14,03,18.40
2017,09,06,14,04,18.50
2017,09,06,14,05,18.60
2017,09,06,14,06,18.70
2017,09,06,14,07,18.80
2017,09,06,14,08,18.90
2017,09,06,14,09,19.00
2017,09,06,14,10,19.10
2017,09,06,14,11,19.00
2017,09,06,14,12,18.90
2017,09,06,14,13,18.80
2017,09,06,14,14,18.70
2017,09,06,14,15,18.60
2017,09,06,14,16,18.50
2017,09,06,14,17,18.40
2017,09,06,14,18,18.30
2017,09,06,14,19,18.20
2017,09,06,14,20,18.20
2017,09,06,14,21,18.10
2017,09,06,14,22,18.10
2017,09,06,14,23,18.00
2017,09,06,14,24,17.90
2017,09,06,14,25,17.80
2017,09,06,14,26,17.80
2017,09,06,14,27,17.80
2017,09,06,14,28,17.80
2017,09,06,14,29,17.70
2017,09,06,14,30,17.70
2017,09,06,14,31,17.70
2017,09,06,14,32,17.70
2017,09,06,14,33,17.70
2017,09,06,14,34,17.70
2017,09,06,14,35,17.70
2017,09,06,14,36,17.70
2017,09,06,14,37,17.70
2017,09,06,14,38,17.70
2017,09,06,14,39,17.70
2017,09,06,14,40,17.80
2017,09,06,14,41,17.80
2017,09,06,14,42,17.80
2017,09,06,14,43,17.80
2017,09,06,14,44,17.90
2017,09,06,14,45,17.90
2017,09,06,14,46,17.90
2017,09,06,14,47,18.00
2017,09,06,14,48,18.00
2017,09,06,14,49,18.10
2017,09,06,14,50,18.10
2017,09,06,14,51,18.10
2017,09,06,14,52,18.10
2017,09,06,14,53,18.20
2017,09,06,14,54,18.20
2017,09,06,14,55,18.30
2017,09,06,14,56,18.30
2017,09,06,14,57,18.40
2017,09,06,14,58,18.50
2017,09,06,14,59,18.60
2017,09,06,15,00,18.70
2017,09,06,15,01,18.70
2017,09,06,15,02,18.80
2017,09,06,15,03,18.90
2017,09,06,15,04,19.00
2017,09,06,15,05,19.10
2017,09,06,15,06,19.10
2017,09,06,15,07,19.20
2017,09,06,15,08,19.20
2017,09,06,15,09,19.20
2017,09,06,15,10,19.30
2017,09,06,15,11,19.30
2017,09,06,15,12,19.30
2017,09,06,15,13,19.30
2017,09,06,15,14,19.30
2017,09,06,15,15,19.30
2017,09,06,15,16,19.30
2017,09,06,15,17,19.30
2017,09,06,15,18,19.30
2017,09,06,15,19,19.30
2017,09,06,15,20,19.40
2017,09,06,15,21,19.40
2017,09,06,15,22,19.40
2017,09,06,15,23,19.40
2017,09,06,15,24,19.40
2017,09,06,15,25,19.40
2017,09,06,15,26,19.50
2017,09,06,15,27,19.50
2017,09,06,15,28,19.50
2017,09,06,15,29,19.50
2017,09,06,15,30,19.50
2017,09,06,15,31,19.60
2017,09,06,15,32,19.50
2017,09,06,15,33,19.50
2017,09,06,15,34,19.50
2017,09,06,15,35,19.50
2017,09,06,15,36,19.50
2017,09,06,15,37,19.50
2017,09,06,15,38,19.50
2017,09,06,15,39,19.40
2017,09,06,15,40,19.40
2017,09,06,15,41,19.30
2017,09,06,15,42,19.30
2017,09,06,15,43,19.30
2017,09,06,15,44,19.30
2017,09,06,15,45,19.30
2017,09,06,15,46,19.30
2017,09,06,15,47,19.30
2017,09,06,15,48,19.40
2017,09,06,15,49,19.40
2017,09,06,15,50,19.50
2017,09,06,15,51,19.50
2017,09,06,15,52,19.50
2017,09,06,15,53,19.60
2017,09,06,15,54,19.60
2017,09,06,15,55,19.60
2017,09,06,15,56,19.60
2017,09,06,15,57,19.60
2017,09,06,15,58,19.60
2017,09,06,15,59,19.60
2017,09,06,16,00,19.60
2017,09,06,16,01,19.60
2017,09,06,16,02,19.60
2017,09,06,16,03,19.50
2017,09,06,16,04,19.50
2017,09,06,16,05,19.40
2017,09,06,16,06,19.40
2017,09,06,16,07,19.30
2017,09,06,16,08,19.30
2017,09,06,16,09,19.20
2017,09,06,16,10,19.20
2017,09,06,16,11,19.10
2017,09,06,16,12,19.10
2017,09,06,16,13,19.10
2017,09,06,16,14,19.10
2017,09,06,16,15,19.10
2017,09,06,16,16,19.10
2017,09,06,16,17,19.20
2017,09,06,16,18,19.20
2017,09,06,16,19,19.20
2017,09,06,16,20,19.30
2017,09,06,16,21,19.30
2017,09,06,16,22,19.30
2017,09,06,16,23,19.30
2017,09,06,16,24,19.30
2017,09,06,16,25,19.30
2017,09,06,16,26,19.40
2017,09,06,16,27,19.40
2017,09,06,16,28,19.40
2017,09,06,16,29,19.40
2017,09,06,16,30,19.40
2017,09,06,16,31,19.50
2017,09,06,16,32,19.50
2017,09,06,16,33,19.50
2017,09,06,16,34,19.60
2017,09,06,16,35,19.60
2017,09,06,16,36,19.70
2017,09,06,16,37,19.70
2017,09,06,16,38,19.80
2017,09,06,16,39,19.90
2017,09,06,16,40,19.90
2017,09,06,16,41,19.90
2017,09,06,16,42,20.00
2017,09,06,16,43,20.00
2017,09,06,16,44,20.00
2017,09,06,16,45,20.10
2017,09,06,16,46,20.10
2017,09,06,16,47,20.10
2017,09,06,16,48,20.10
2017,09,06,16,49,20.10
2017,09,06,16,50,20.00
2017,09,06,16,51,19.80
2017,09,06,16,52,19.50
2017,09,06,16,53,19.00
2017,09,06,16,54,18.70
2017,09,06,16,55,18.50
2017,09,06,16,56,18.30
2017,09,06,16,57,18.20
2017,09,06,16,58,18.20
2017,09,06,16,59,18.10
2017,09,06,17,00,18.00
2017,09,06,17,01,17.90
2017,09,06,17,02,17.80
2017,09,06,17,03,17.80
2017,09,06,17,04,17.80
2017,09,06,17,05,17.90
2017,09,06,17,06,18.00
2017,09,06,17,07,18.10
2017,09,06,17,08,18.20
2017,09,06,17,09,18.20
2017,09,06,17,10,18.20
2017,09,06,17,11,18.20
2017,09,06,17,12,18.20
2017,09,06,17,13,18.10
2017,09,06,17,14,18.00
2017,09,06,17,15,17.80
2017,09,06,17,16,17.80
2017,09,06,17,17,17.70
2017,09,06,17,18,17.60
2017,09,06,17,19,17.50